DAL3335 EFHK-ENAT

Flight info

Callsign DAL3335
Flight time 0h 45m
Altitude 26000
Route TEVRU Y75 USUPO DCT AMULU DCT BADIX
Aircraft E170/M-SDE3GILORVW/S

Departure

Time 2026-04-16 22:06
Airport Helsinki Vantaa Airport (EFHK)

Arrival

Time 2026-04-16 22:52
Airport Alta Airport (ENAT)
Time Latitude Longitude Altitude Speed Heading
2026-04-16 21:05 60.31782 24.96261 163 ft 0 kts 141°
2026-04-16 21:06 60.31782 24.96260 163 ft 0 kts 141°
2026-04-16 21:21 60.31783 24.96260 163 ft 0 kts 141°
2026-04-16 21:22 60.31783 24.96259 163 ft 0 kts 141°
2026-04-16 21:34 60.31788 24.97088 172 ft 0 kts 242°
2026-04-16 21:34 60.31804 24.96385 165 ft 0 kts 137°
2026-04-16 21:35 60.31805 24.96385 165 ft 0 kts 137°
2026-04-16 21:38 60.31805 24.96384 165 ft 0 kts 137°
2026-04-16 21:50 60.31806 24.96382 165 ft 1 kts 137°
2026-04-16 21:51 60.31817 24.96362 164 ft 3 kts 140°
2026-04-16 21:51 60.31831 24.96334 164 ft 3 kts 116°
2026-04-16 21:51 60.31831 24.96315 164 ft 1 kts 50°
2026-04-16 21:51 60.31830 24.96313 164 ft 0 kts 50°
2026-04-16 21:57 60.31831 24.96315 164 ft 1 kts 51°
2026-04-16 21:57 60.31843 24.96335 164 ft 4 kts 25°
2026-04-16 21:58 60.31881 24.96341 164 ft 7 kts 357°
2026-04-16 21:58 60.31918 24.96345 163 ft 1 kts
2026-04-16 21:58 60.31940 24.96333 163 ft 5 kts 336°
2026-04-16 21:58 60.31966 24.96301 163 ft 1 kts 323°
2026-04-16 21:59 60.31969 24.96267 162 ft 4 kts 255°
2026-04-16 21:59 60.31944 24.96196 162 ft 7 kts 228°
2026-04-16 21:59 60.31913 24.96116 161 ft 9 kts 251°
2026-04-16 21:59 60.31926 24.96005 160 ft 9 kts 280°
2026-04-16 22:00 60.31893 24.95878 159 ft 11 kts 230°
2026-04-16 22:00 60.31837 24.95748 158 ft 13 kts 228°
2026-04-16 22:00 60.31769 24.95599 157 ft 15 kts 232°
2026-04-16 22:00 60.31701 24.95451 156 ft 14 kts 230°
2026-04-16 22:01 60.31639 24.95314 156 ft 13 kts 225°
2026-04-16 22:01 60.31581 24.95179 155 ft 12 kts 225°
2026-04-16 22:01 60.31520 24.95056 154 ft 13 kts 234°
2026-04-16 22:01 60.31466 24.94927 153 ft 11 kts 225°
2026-04-16 22:02 60.31412 24.94811 152 ft 11 kts 233°
2026-04-16 22:02 60.31358 24.94700 152 ft 11 kts 220°
2026-04-16 22:02 60.31306 24.94583 151 ft 11 kts 231°
2026-04-16 22:02 60.31252 24.94473 150 ft 11 kts 227°
2026-04-16 22:03 60.31202 24.94362 150 ft 11 kts 229°
2026-04-16 22:03 60.31161 24.94244 149 ft 8 kts 248°
2026-04-16 22:03 60.31125 24.94165 149 ft 8 kts 219°
2026-04-16 22:03 60.31077 24.94076 148 ft 11 kts 224°
2026-04-16 22:04 60.31047 24.93984 147 ft 9 kts 256°
2026-04-16 22:04 60.31046 24.93886 147 ft 3 kts 266°
2026-04-16 22:04 60.31049 24.93827 146 ft 6 kts 287°
2026-04-16 22:04 60.31081 24.93742 145 ft 10 kts 317°
2026-04-16 22:05 60.31135 24.93678 144 ft 7 kts
2026-04-16 22:05 60.31175 24.93733 145 ft 7 kts 49°
2026-04-16 22:05 60.31280 24.93962 148 ft 57 kts 48°
2026-04-16 22:05 60.31746 24.94982 156 ft 139 kts 47°
2026-04-16 22:06 60.32521 24.96696 569 ft 183 kts 45°
2026-04-16 22:06 60.34609 25.00745 2570 ft 212 kts 42°
2026-04-16 22:06 60.35719 25.02843 3798 ft 232 kts 49°
2026-04-16 22:07 60.36807 25.05703 4325 ft 283 kts 54°
2026-04-16 22:07 60.38030 25.08891 5862 ft 285 kts 51°
2026-04-16 22:07 60.39381 25.11804 7581 ft 287 kts 38°
2026-04-16 22:07 60.41221 25.13347 9190 ft 292 kts 10°
2026-04-16 22:08 60.43235 25.13587 10857 ft 287 kts
2026-04-16 22:08 60.45219 25.13589 12338 ft 286 kts
2026-04-16 22:08 60.47226 25.13549 13621 ft 290 kts
2026-04-16 22:08 60.49265 25.13448 14745 ft 295 kts 359°
2026-04-16 22:09 60.51339 25.12692 15563 ft 314 kts 341°
2026-04-16 22:09 60.53346 25.10852 16419 ft 327 kts 337°
2026-04-16 22:09 60.55427 25.08807 17312 ft 336 kts 337°
2026-04-16 22:09 60.57556 25.06724 18273 ft 343 kts 337°
2026-04-16 22:10 60.59737 25.04608 19115 ft 350 kts 337°
2026-04-16 22:10 60.61962 25.02455 19948 ft 356 kts 337°
2026-04-16 22:10 60.64217 25.00268 20790 ft 361 kts 337°
2026-04-16 22:10 60.66499 24.98051 21622 ft 366 kts 337°
2026-04-16 22:11 60.68812 24.95792 22412 ft 367 kts 337°
2026-04-16 22:11 60.71119 24.93528 22672 ft 371 kts 336°
2026-04-16 22:11 60.73439 24.91243 23184 ft 378 kts 336°
2026-04-16 22:11 60.75825 24.88889 23780 ft 382 kts 336°
2026-04-16 22:12 60.78221 24.86517 24382 ft 383 kts 336°
2026-04-16 22:12 60.80638 24.84160 24979 ft 384 kts 340°
2026-04-16 22:12 60.83190 24.82693 25548 ft 380 kts 354°
2026-04-16 22:12 60.85823 24.82648 26170 ft 378 kts
2026-04-16 22:13 60.88475 24.83236 26323 ft 391 kts
2026-04-16 22:13 60.91225 24.83983 26337 ft 406 kts
2026-04-16 22:13 60.94064 24.84776 26085 ft 415 kts
2026-04-16 22:13 60.96923 24.85575 26128 ft 416 kts
2026-04-16 22:14 61.01146 24.86719 26146 ft 417 kts
2026-04-16 22:14 61.10182 24.89161 26164 ft 418 kts
2026-04-16 22:14 61.21771 24.92324 26173 ft 417 kts
2026-04-16 22:14 61.33302 24.94964 26176 ft 417 kts
2026-04-16 22:15 61.44838 24.97613 26178 ft 417 kts
2026-04-16 22:15 61.56356 25.00284 26186 ft 416 kts
2026-04-16 22:15 61.67900 25.00827 26179 ft 416 kts 357°
2026-04-16 22:15 61.79474 24.99663 26180 ft 418 kts 357°
2026-04-16 22:16 61.91090 24.98523 26206 ft 418 kts 357°
2026-04-16 22:16 62.02707 24.97376 26211 ft 418 kts 357°
2026-04-16 22:16 62.14200 24.96232 26220 ft 420 kts 358°
2026-04-16 22:16 62.25898 24.95060 26224 ft 421 kts 358°
2026-04-16 22:17 62.37609 24.93875 26242 ft 421 kts 358°
2026-04-16 22:17 62.49331 24.92679 26239 ft 421 kts 358°
2026-04-16 22:17 62.61027 24.91480 26252 ft 421 kts 358°
2026-04-16 22:17 62.68739 24.90684 26251 ft 421 kts 358°
2026-04-16 22:18 62.69409 24.90615 26254 ft 421 kts 358°
2026-04-16 22:18 62.81100 24.89454 26256 ft 420 kts 357°
2026-04-16 22:18 62.92830 24.88225 26270 ft 421 kts 357°
2026-04-16 22:18 63.04523 24.86987 26263 ft 421 kts 357°
2026-04-16 22:19 63.16200 24.85746 26274 ft 418 kts 356°
2026-04-16 22:19 63.27845 24.84489 26272 ft 419 kts 356°
2026-04-16 22:19 63.39470 24.83230 26283 ft 419 kts 356°
2026-04-16 22:19 63.51063 24.81966 26288 ft 413 kts 356°
2026-04-16 22:20 63.62568 24.80697 26283 ft 414 kts 356°
2026-04-16 22:20 63.74068 24.79418 26288 ft 414 kts 356°
2026-04-16 22:20 63.85572 24.78134 26294 ft 413 kts 356°
2026-04-16 22:20 63.97052 24.76840 26290 ft 413 kts 356°
2026-04-16 22:21 64.08552 24.75533 26287 ft 413 kts 356°
2026-04-16 22:21 64.19977 24.74230 26306 ft 407 kts 355°
2026-04-16 22:21 64.31325 24.72914 26292 ft 408 kts 355°
2026-04-16 22:21 64.42675 24.71591 26293 ft 408 kts 355°
2026-04-16 22:22 64.54053 24.70256 26300 ft 407 kts 355°
2026-04-16 22:22 64.65398 24.68913 26299 ft 408 kts 355°
2026-04-16 22:22 64.76967 24.67531 26302 ft 408 kts 355°
2026-04-16 22:22 65.07027 24.63888 26312 ft 403 kts 355°
2026-04-16 22:23 65.21870 24.62067 26325 ft 401 kts 355°
2026-04-16 22:23 65.51265 24.58379 26304 ft 399 kts 355°
2026-04-16 22:23 65.73305 24.55565 26316 ft 395 kts 354°
2026-04-16 22:23 65.95386 24.52693 26312 ft 398 kts 355°
2026-04-16 22:24 66.17593 24.49759 26323 ft 399 kts 355°
2026-04-16 22:24 66.32214 24.47807 26336 ft 392 kts 355°
2026-04-16 22:24 66.54101 24.44805 26372 ft 398 kts 355°
2026-04-16 22:24 66.76053 24.41782 26341 ft 392 kts 355°
2026-04-16 22:25 66.97801 24.38720 26356 ft 392 kts 355°
2026-04-16 22:25 67.19275 24.35639 26351 ft 386 kts 354°
2026-04-16 22:25 67.40893 24.31151 26405 ft 378 kts 343°
2026-04-16 22:25 67.51074 24.22324 26338 ft 383 kts 342°
2026-04-16 22:26 67.56158 24.18230 26356 ft 383 kts 342°
2026-04-16 22:26 67.61252 24.14137 26356 ft 383 kts 342°
2026-04-16 22:26 67.66346 24.10021 26361 ft 383 kts 342°
2026-04-16 22:26 67.71445 24.05879 26363 ft 383 kts 342°
2026-04-16 22:27 67.76541 24.01721 26384 ft 385 kts 342°
2026-04-16 22:27 67.81624 23.97555 26377 ft 382 kts 342°
2026-04-16 22:27 67.86722 23.93358 26369 ft 383 kts 342°
2026-04-16 22:27 67.91771 23.89181 26364 ft 383 kts 342°
2026-04-16 22:28 67.96917 23.84902 26365 ft 383 kts 342°
2026-04-16 22:28 68.02026 23.80636 26366 ft 384 kts 342°
2026-04-16 22:28 68.07116 23.76367 26377 ft 384 kts 342°
2026-04-16 22:28 68.12134 23.72138 26378 ft 384 kts 342°
2026-04-16 22:29 68.17225 23.67831 26377 ft 384 kts 342°
2026-04-16 22:29 68.22275 23.63533 26389 ft 378 kts 342°
2026-04-16 22:29 68.27317 23.59222 26370 ft 383 kts 342°
2026-04-16 22:29 68.32402 23.54859 26380 ft 384 kts 342°
2026-04-16 22:30 68.37496 23.50465 26379 ft 384 kts 342°
2026-04-16 22:30 68.42589 23.46050 26380 ft 384 kts 342°
2026-04-16 22:30 68.47691 23.41609 26325 ft 384 kts 342°
2026-04-16 22:30 68.52791 23.37146 26338 ft 384 kts 342°
2026-04-16 22:31 68.57884 23.32671 26352 ft 385 kts 342°
2026-04-16 22:31 68.62933 23.28207 26367 ft 377 kts 342°
2026-04-16 22:31 68.67941 23.23766 26379 ft 379 kts 342°
2026-04-16 22:31 68.72958 23.19290 26344 ft 379 kts 342°
2026-04-16 22:32 68.78010 23.14763 26390 ft 384 kts 342°
2026-04-16 22:32 68.83109 23.10173 26389 ft 386 kts 342°
2026-04-16 22:32 68.88221 23.05560 26389 ft 386 kts 342°
2026-04-16 22:32 68.93251 23.00987 26385 ft 386 kts 342°
2026-04-16 22:33 68.98350 22.96328 26385 ft 386 kts 342°
2026-04-16 22:33 69.03450 22.91647 26367 ft 378 kts 342°
2026-04-16 22:33 69.08312 22.87181 25906 ft 352 kts 342°
2026-04-16 22:33 69.12873 22.82992 24992 ft 342 kts 342°
2026-04-16 22:34 69.17373 22.78853 24087 ft 338 kts 342°
2026-04-16 22:34 69.21812 22.74745 23195 ft 334 kts 342°
2026-04-16 22:34 69.26261 22.70614 22262 ft 339 kts 341°
2026-04-16 22:34 69.30693 22.66489 21405 ft 332 kts 341°
2026-04-16 22:35 69.34153 22.63260 20724 ft 329 kts 341°
2026-04-16 22:35 69.36316 22.61242 20299 ft 327 kts 341°
2026-04-16 22:35 69.38477 22.59227 19870 ft 325 kts 341°
2026-04-16 22:35 69.40623 22.57224 19446 ft 324 kts 341°
2026-04-16 22:36 69.42756 22.55215 19044 ft 321 kts 341°
2026-04-16 22:36 69.44859 22.53228 18561 ft 316 kts 341°
2026-04-16 22:36 69.46923 22.51278 18193 ft 311 kts 341°
2026-04-16 22:36 69.48960 22.49360 17790 ft 312 kts 341°
2026-04-16 22:37 69.51026 22.47408 17371 ft 313 kts 341°
2026-04-16 22:37 69.53088 22.45439 16960 ft 312 kts 341°
2026-04-16 22:37 69.55146 22.43480 16551 ft 311 kts 341°
2026-04-16 22:37 69.57199 22.41528 16153 ft 311 kts 341°
2026-04-16 22:38 69.59248 22.39559 15738 ft 310 kts 341°
2026-04-16 22:38 69.61291 22.37602 15339 ft 309 kts 341°
2026-04-16 22:38 69.63318 22.35657 14939 ft 303 kts 341°
2026-04-16 22:38 69.65292 22.33758 14541 ft 294 kts 341°
2026-04-16 22:39 69.67209 22.31914 14154 ft 287 kts 341°
2026-04-16 22:39 69.69081 22.30109 13810 ft 279 kts 341°
2026-04-16 22:39 69.70899 22.28349 13431 ft 273 kts 341°
2026-04-16 22:39 69.72670 22.26646 13082 ft 271 kts 342°
2026-04-16 22:40 69.74477 22.24898 12739 ft 276 kts 341°
2026-04-16 22:40 69.76307 22.23120 12310 ft 279 kts 341°
2026-04-16 22:40 69.78169 22.22219 12343 ft 272 kts
2026-04-16 22:40 69.79993 22.23842 12454 ft 279 kts 22°
2026-04-16 22:41 69.81744 22.26263 12471 ft 274 kts 23°
2026-04-16 22:41 69.83445 22.28449 12367 ft 267 kts 20°
2026-04-16 22:41 69.85184 22.30421 12333 ft 271 kts 19°
2026-04-16 22:41 69.86991 22.32338 12167 ft 279 kts 18°
2026-04-16 22:42 69.88831 22.34243 11806 ft 283 kts 18°
2026-04-16 22:42 69.90686 22.36150 11415 ft 282 kts 18°
2026-04-16 22:42 69.92529 22.38048 11037 ft 280 kts 18°
2026-04-16 22:42 69.94362 22.39936 10663 ft 278 kts 18°
2026-04-16 22:43 69.96179 22.41814 10289 ft 277 kts 18°
2026-04-16 22:43 69.97990 22.43689 9884 ft 275 kts 18°
2026-04-16 22:43 69.99792 22.45561 9475 ft 274 kts 19°
2026-04-16 22:43 70.01574 22.47430 9074 ft 271 kts 19°
2026-04-16 22:44 70.03338 22.49281 8681 ft 266 kts 19°
2026-04-16 22:44 70.04935 22.51600 8290 ft 252 kts 39°
2026-04-16 22:44 70.05902 22.55603 7918 ft 232 kts 69°
2026-04-16 22:44 70.06213 22.60030 7535 ft 213 kts 80°
2026-04-16 22:45 70.06388 22.64192 7136 ft 200 kts 81°
2026-04-16 22:45 70.06555 22.68118 6751 ft 189 kts 80°
2026-04-16 22:45 70.06729 22.71912 6208 ft 189 kts 79°
2026-04-16 22:45 70.06918 22.75692 5612 ft 191 kts 79°
2026-04-16 22:46 70.07111 22.79547 5063 ft 190 kts 81°
2026-04-16 22:46 70.07053 22.83230 4828 ft 172 kts 96°
2026-04-16 22:46 70.06969 22.86482 4638 ft 148 kts 88°
2026-04-16 22:46 70.06985 22.89333 4442 ft 135 kts 88°
2026-04-16 22:47 70.06834 22.92023 4179 ft 138 kts 114°
2026-04-16 22:47 70.06327 22.94382 3963 ft 135 kts 123°
2026-04-16 22:47 70.05850 22.96750 3771 ft 135 kts 117°
2026-04-16 22:47 70.05391 22.99162 3569 ft 136 kts 120°
2026-04-16 22:48 70.04898 23.01540 3349 ft 137 kts 120°
2026-04-16 22:48 70.04413 23.03920 3102 ft 136 kts 119°
2026-04-16 22:48 70.03936 23.06293 2829 ft 135 kts 121°
2026-04-16 22:48 70.03446 23.08630 2562 ft 134 kts 121°
2026-04-16 22:49 70.02984 23.10995 2299 ft 134 kts 121°
2026-04-16 22:49 70.02502 23.13307 2057 ft 133 kts 123°
2026-04-16 22:49 70.02030 23.15605 1877 ft 131 kts 122°
2026-04-16 22:49 70.01567 23.17930 1678 ft 132 kts 122°
2026-04-16 22:50 70.01086 23.20236 1451 ft 132 kts 122°
2026-04-16 22:50 70.00609 23.22499 1246 ft 130 kts 121°
2026-04-16 22:50 70.00160 23.24744 1046 ft 130 kts 120°
2026-04-16 22:50 69.99708 23.27015 812 ft 129 kts 121°
2026-04-16 22:51 69.99248 23.29250 615 ft 127 kts 122°
2026-04-16 22:51 69.98783 23.31442 378 ft 127 kts 121°
2026-04-16 22:51 69.98333 23.33665 125 ft 126 kts 120°
2026-04-16 22:51 69.97897 23.35784 20 ft 110 kts 122°
2026-04-16 22:52 69.97564 23.37394 19 ft 72 kts 122°
2026-04-16 22:52 69.97391 23.38219 19 ft 32 kts 121°
2026-04-16 22:52 69.97333 23.38456 17 ft 4 kts 117°
2026-04-16 22:52 69.97344 23.38497 17 ft 3 kts 352°
2026-04-16 22:53 69.97352 23.38456 18 ft 3 kts 271°
2026-04-16 22:53 69.97352 23.38446 19 ft 0 kts 275°
2026-04-16 22:56 69.97353 23.38428 17 ft 2 kts 277°
2026-04-16 22:57 69.97358 23.38379 20 ft 3 kts 292°
2026-04-16 22:57 69.97370 23.38315 18 ft 5 kts 301°
2026-04-16 22:57 69.97392 23.38209 18 ft 7 kts 301°
2026-04-16 22:57 69.97420 23.38080 20 ft 7 kts 301°
2026-04-16 22:58 69.97447 23.37951 21 ft 1 kts 302°
2026-04-16 22:58 69.97453 23.37925 20 ft 3 kts 301°
2026-04-16 22:58 69.97470 23.37843 20 ft 6 kts 301°
2026-04-16 22:58 69.97495 23.37725 21 ft 8 kts 300°
2026-04-16 22:59 69.97534 23.37539 20 ft 13 kts 300°
2026-04-16 22:59 69.97587 23.37276 16 ft 17 kts 301°
2026-04-16 22:59 69.97650 23.36968 19 ft 18 kts 300°
2026-04-16 22:59 69.97709 23.36686 19 ft 16 kts 301°
2026-04-16 23:00 69.97706 23.36435 19 ft 13 kts 239°
2026-04-16 23:00 69.97672 23.36255 18 ft 7 kts 257°
2026-04-16 23:00 69.97673 23.36072 20 ft 11 kts 281°
2026-04-16 23:00 69.97700 23.35883 18 ft 11 kts 301°
2026-04-16 23:01 69.97724 23.35742 18 ft 6 kts 266°
2026-04-16 23:01 69.97704 23.35613 19 ft 8 kts 224°
2026-04-16 23:01 69.97692 23.35585 18 ft 2 kts 214°
2026-04-16 23:01 69.97683 23.35566 18 ft 0 kts 213°